When you browse on this site, cookies collect data to enhance your experience and personalize the content and advertising you see.
Visit our Privacy Policy to learn more. By continuing to use the site, you agree to this use of cookies and data.
  • en Belgique
  • Liste des pays
  • À 7 jours
  • Température de l'eau
  • Carte météo
  • Widgets météo
  • user-avatar
    Se connecter

    Météo par heure à Potapovka

    Ce jour, 26 Février, Mercredi

    Heure Température Précipitation Vent Pression Humidité
    00:00 -6°C° 0 mm 3 m/s 736 mmHg 87%
    01:00 -6°C° 0 mm 3 m/s 736 mmHg 88%
    02:00 -6°C° 0 mm 3 m/s 735 mmHg 91%
    03:00 -5°C° 0 mm 4 m/s 735 mmHg 93%
    04:00 -5°C° 0 mm 4 m/s 734 mmHg 94%
    05:00 -4°C° 0 mm 4 m/s 734 mmHg 96%
    06:00 -5°C° 0 mm 5 m/s 734 mmHg 95%
    07:00 -5°C° 0 mm 5 m/s 733 mmHg 95%
    08:00 -4°C° 0 mm 5 m/s 733 mmHg 95%
    09:00 -4°C° 0.2 mm 5 m/s 733 mmHg 96%
    10:00 -3°C° 0.2 mm 6 m/s 732 mmHg 97%
    11:00 -3°C° 0.2 mm 6 m/s 732 mmHg 99%
    12:00 -2°C° 0.5 mm 6 m/s 732 mmHg 99%
    13:00 -2°C° 0.5 mm 6 m/s 731 mmHg 99%
    14:00 -2°C° 0.5 mm 6 m/s 731 mmHg 99%
    15:00 -2°C° 0.2 mm 6 m/s 731 mmHg 99%
    16:00 -2°C° 0.2 mm 6 m/s 731 mmHg 99%
    17:00 0°C° 0.2 mm 5 m/s 731 mmHg 98%
    18:00 0°C° 0.1 mm 5 m/s 731 mmHg 98%
    19:00 0°C° 0.1 mm 4 m/s 731 mmHg 98%
    20:00 0°C° 0.1 mm 4 m/s 731 mmHg 98%
    21:00 0°C° 0.1 mm 3 m/s 731 mmHg 98%
    22:00 0°C° 0.1 mm 3 m/s 731 mmHg 98%
    23:00 0°C° 0.1 mm 3 m/s 731 mmHg 98%

    Demain, 27 Février, Jeudi

    Heure Température Précipitation Vent Pression Humidité
    00:00 0°C° 0.1 mm 3 m/s 730 mmHg 98%
    01:00 0°C° 0.1 mm 3 m/s 730 mmHg 98%
    02:00 0°C° 0.1 mm 3 m/s 730 mmHg 98%
    03:00 -1°C° 0 mm 4 m/s 730 mmHg 98%
    04:00 -1°C° 0 mm 4 m/s 730 mmHg 97%
    05:00 -1°C° 0 mm 5 m/s 729 mmHg 96%
    06:00 -1°C° 0 mm 5 m/s 729 mmHg 96%
    07:00 -2°C° 0 mm 6 m/s 729 mmHg 95%
    08:00 -2°C° 0 mm 6 m/s 729 mmHg 95%
    09:00 -2°C° 0 mm 6 m/s 729 mmHg 96%
    10:00 -2°C° 0 mm 6 m/s 729 mmHg 98%
    11:00 -1°C° 0 mm 6 m/s 729 mmHg 99%
    12:00 0°C° 0 mm 5 m/s 729 mmHg 99%
    13:00 0°C° 0 mm 5 m/s 729 mmHg 99%
    14:00 0°C° 0 mm 4 m/s 729 mmHg 99%
    15:00 0°C° 0 mm 4 m/s 729 mmHg 99%
    16:00 +1°C° 0 mm 3 m/s 729 mmHg 99%
    17:00 +1°C° 0 mm 3 m/s 728 mmHg 99%
    18:00 +1°C° 0 mm 3 m/s 729 mmHg 99%
    19:00 +1°C° 0 mm 3 m/s 729 mmHg 99%
    20:00 +1°C° 0 mm 3 m/s 729 mmHg 99%
    21:00 +1°C° 0 mm 3 m/s 729 mmHg 98%
    22:00 +1°C° 0 mm 2 m/s 729 mmHg 97%
    23:00 +1°C° 0 mm 2 m/s 729 mmHg 96%

    Après-demain, 28 Février, Vendredi

    Heure Température Précipitation Vent Pression Humidité
    00:00 +2°C° 0 mm 1 m/s 729 mmHg 94%
    01:00 +2°C° 0 mm 1 m/s 729 mmHg 93%
    02:00 +1°C° 0 mm 0 m/s 729 mmHg 92%
    03:00 +2°C° 0.4 mm 1 m/s 729 mmHg 94%
    04:00 +1°C° 0.4 mm 2 m/s 729 mmHg 96%
    05:00 +1°C° 0.4 mm 2 m/s 728 mmHg 98%
    06:00 0°C° 2 mm 3 m/s 728 mmHg 98%
    07:00 -2°C° 2 mm 4 m/s 728 mmHg 99%
    08:00 -2°C° 2 mm 5 m/s 728 mmHg 99%
    09:00 -2°C° 0.4 mm 5 m/s 728 mmHg 99%
    10:00 -2°C° 0.4 mm 5 m/s 728 mmHg 99%
    11:00 -2°C° 0.4 mm 5 m/s 728 mmHg 99%
    12:00 -1°C° 0.3 mm 5 m/s 729 mmHg 98%
    13:00 -1°C° 0.3 mm 4 m/s 729 mmHg 98%
    14:00 -1°C° 0.3 mm 4 m/s 730 mmHg 97%
    15:00 -2°C° 0 mm 4 m/s 731 mmHg 93%
    16:00 -2°C° 0 mm 4 m/s 732 mmHg 90%
    17:00 -1°C° 0 mm 3 m/s 733 mmHg 86%
    18:00 -3°C° 0 mm 4 m/s 734 mmHg 86%
    19:00 -3°C° 0 mm 4 m/s 734 mmHg 86%
    20:00 -3°C° 0 mm 4 m/s 735 mmHg 86%
    21:00 -4°C° 0 mm 4 m/s 735 mmHg 86%
    22:00 -4°C° 0 mm 3 m/s 736 mmHg 87%
    23:00 -5°C° 0 mm 3 m/s 736 mmHg 87%

    29 Février, Samedi

    Heure Température Précipitation Vent Pression Humidité
    00:00 -5°C° 0 mm 3 m/s 736 mmHg 87%
    01:00 -5°C° 0 mm 3 m/s 736 mmHg 87%
    02:00 -5°C° 0 mm 3 m/s 737 mmHg 87%
    03:00 -5°C° 0 mm 3 m/s 737 mmHg 87%
    04:00 -4°C° 0 mm 2 m/s 737 mmHg 87%
    05:00 -3°C° 0 mm 2 m/s 737 mmHg 87%
    06:00 -3°C° 0 mm 2 m/s 737 mmHg 88%
    07:00 -3°C° 0 mm 2 m/s 737 mmHg 88%
    08:00 -3°C° 0 mm 2 m/s 737 mmHg 88%
    09:00 -2°C° 0 mm 2 m/s 738 mmHg 88%
    10:00 -1°C° 0 mm 2 m/s 738 mmHg 88%
    11:00 -1°C° 0 mm 2 m/s 738 mmHg 88%
    12:00 -1°C° 0 mm 2 m/s 738 mmHg 89%
    13:00 -1°C° 0 mm 2 m/s 738 mmHg 90%
    14:00 +2°C° 0 mm 1 m/s 738 mmHg 92%
    15:00 +1°C° 0 mm 1 m/s 738 mmHg 91%
    16:00 0°C° 0 mm 1 m/s 738 mmHg 90%
    17:00 0°C° 0 mm 1 m/s 738 mmHg 89%
    18:00 0°C° 0 mm 1 m/s 739 mmHg 88%
    19:00 -1°C° 0 mm 1 m/s 739 mmHg 88%
    20:00 -1°C° 0 mm 1 m/s 740 mmHg 87%
    21:00 -2°C° 0 mm 0 m/s 740 mmHg 87%
    22:00 -2°C° 0 mm 0 m/s 740 mmHg 86%
    23:00 -2°C° 0 mm 0 m/s 741 mmHg 86%

    1 Mars, Dimanche

    Heure Température Précipitation Vent Pression Humidité
    00:00 -2°C° 0 mm 0 m/s 741 mmHg 86%
    01:00 -2°C° 0 mm 0 m/s 741 mmHg 86%
    02:00 -2°C° 0 mm 0 m/s 742 mmHg 86%
    03:00 -1°C° 0 mm 1 m/s 742 mmHg 87%
    04:00 -1°C° 0 mm 1 m/s 743 mmHg 87%
    05:00 -2°C° 0 mm 1 m/s 743 mmHg 87%
    06:00 -4°C° 0 mm 2 m/s 744 mmHg 88%
    07:00 -4°C° 0 mm 2 m/s 744 mmHg 89%
    08:00 -3°C° 0 mm 2 m/s 745 mmHg 90%
    09:00 -1°C° 0 mm 1 m/s 745 mmHg 89%
    10:00 0°C° 0 mm 1 m/s 745 mmHg 88%
    11:00 +1°C° 0 mm 1 m/s 746 mmHg 87%
    12:00 +1°C° 0 mm 1 m/s 746 mmHg 88%
    13:00 +1°C° 0 mm 1 m/s 746 mmHg 90%
    14:00 +1°C° 0 mm 1 m/s 746 mmHg 91%
    15:00 +1°C° 0 mm 1 m/s 746 mmHg 90%
    16:00 0°C° 0 mm 1 m/s 746 mmHg 89%
    17:00 -1°C° 0 mm 1 m/s 746 mmHg 87%
    18:00 -1°C° 0 mm 1 m/s 747 mmHg 87%
    19:00 -3°C° 0 mm 2 m/s 747 mmHg 87%
    20:00 -3°C° 0 mm 2 m/s 747 mmHg 87%
    21:00 -3°C° 0 mm 2 m/s 747 mmHg 89%
    22:00 -3°C° 0 mm 2 m/s 747 mmHg 90%
    23:00 -4°C° 0 mm 3 m/s 748 mmHg 91%

    2 Mars, Lundi

    Heure Température Précipitation Vent Pression Humidité
    00:00 -4°C° 0 mm 3 m/s 747 mmHg 92%
    01:00 -4°C° 0 mm 3 m/s 747 mmHg 92%
    02:00 -4°C° 0 mm 3 m/s 747 mmHg 93%
    03:00 -4°C° 0 mm 3 m/s 747 mmHg 94%
    04:00 -4°C° 0 mm 3 m/s 747 mmHg 94%
    05:00 -4°C° 0 mm 3 m/s 747 mmHg 95%
    06:00 -4°C° 0 mm 4 m/s 747 mmHg 95%
    07:00 -4°C° 0 mm 5 m/s 747 mmHg 95%
    08:00 -4°C° 0 mm 6 m/s 747 mmHg 95%
    09:00 -2°C° 0 mm 5 m/s 747 mmHg 93%
    10:00 -2°C° 0 mm 5 m/s 747 mmHg 91%
    11:00 -1°C° 0 mm 5 m/s 746 mmHg 89%
    12:00 -1°C° 0 mm 5 m/s 746 mmHg 90%
    13:00 -1°C° 0 mm 5 m/s 746 mmHg 90%
    14:00 -1°C° 0 mm 5 m/s 745 mmHg 90%
    15:00 -1°C° 0 mm 5 m/s 745 mmHg 90%
    16:00 -1°C° 0 mm 4 m/s 745 mmHg 89%
    17:00 -1°C° 0 mm 4 m/s 745 mmHg 89%
    18:00 -1°C° 0 mm 4 m/s 745 mmHg 88%
    19:00 -1°C° 0 mm 4 m/s 745 mmHg 88%
    20:00 -1°C° 0 mm 4 m/s 745 mmHg 88%
    21:00 -1°C° 0 mm 4 m/s 745 mmHg 87%
    22:00 -1°C° 0 mm 4 m/s 745 mmHg 87%
    23:00 -1°C° 0 mm 4 m/s 745 mmHg 87%
    Voir plus